Lid_Strength_Index
0 1 1 1 1 1 1 1 1 1 1 1 1 1 0 0 0 2 3 1 3 7 7 7 7 10 7 7 10 10 11 11 13 14 14 14 14 13 13 13 14 14 15 15 16 15 16 10 11 12 10 11 10 11
1 1 1 1 1 2 2 1 1 1 1 1 1 1 0 0 0 1 4 1 1 6 7 4 6 6 6 6 6 9 9 11 10 13 14 14 14 14 13 15 13 13 12 12 12 12 10 10 11 10 9 9 10 11
1 1 1 2 2 2 2 1 1 1 1 2 2 1 1 1 0 1 3 2 3 6 8 7 8 5 3 4 4 7 9 8 9 9 12 12 13 12 13 13 13 13 12 11 12 10 10 10 10 9 9 9 10 11
2 2 2 2 2 2 2 2 1 -0 0 1 1 1 1 1 1 1 3 2 3 6 10 7 3 4 2 2 3 3 5 6 7 9 11 12 12 11 12 11 12 12 11 12 12 11 11 10 9 9 10 11 12 12
2 2 2 2 2 2 3 2 1 0 0 1 1 1 1 1 1 2 3 3 2 6 9 7 4 3 3 2 3 3 5 7 7 9 12 12 12 11 12 12 12 11 11 11 11 9 9 9 9 10 11 12 12 14
3 2 3 3 2 3 3 2 2 1 1 1 1 2 1 1 2 3 7 3 2 3 7 10 4 4 2 2 3 4 4 7 9 9 10 10 11 10 11 12 10 10 9 8 9 10 11 10 10 10 11 12 13 14
3 3 3 3 3 3 3 3 2 2 2 2 2 1 1 2 3 6 7 3 2 2 7 9 8 4 3 4 4 5 5 7 7 10 11 11 11 11 11 12 10 10 9 10 10 10 12 11 12 12 13 14 14 15
3 3 3 3 3 3 3 3 2 2 2 2 2 1 1 2 3 5 4 2 2 4 6 10 9 8 4 7 9 6 8 8 9 10 11 12 12 12 12 11 10 10 10 11 11 11 10 12 13 14 15 15 16 17
3 3 3 3 3 3 3 3 3 2 2 2 1 1 2 5 7 5 2 0 2 5 10 9 10 12 5 8 8 8 8 12 11 13 12 11 13 13 11 11 11 11 10 12 14 13 13 14 15 15 15 15 17 17
3 3 3 3 3 3 3 3 2 2 2 1 3 6 9 5 2 1 3 6 8 8 7 9 8 11 7 8 11 11 10 12 13 12 13 14 13 11 10 9 8 10 12 13 15 16 15 16 15 16 15 15 16 17
4 3 3 3 3 3 3 2 2 1 -0 3 5 6 4 -0 2 5 8 9 9 10 9 8 8 10 7 12 11 9 13 12 14 13 13 14 14 10 9 10 10 10 12 11 10 12 13 14 15 16 16 16 17 17
3 3 3 2 2 2 2 2 1 1 3 3 4 2 1 4 6 9 11 9 10 10 8 8 8 7 8 8 10 10 13 13 14 13 14 15 13 11 11 9 11 11 12 12 13 14 14 14 15 16 16 17 17 18
2 2 2 2 2 2 2 2 0 0 0 2 4 6 8 8 11 12 14 12 11 8 7 7 10 8 8 8 11 12 13 14 13 15 15 14 13 13 13 13 13 12 13 14 14 15 15 15 16 16 17 17 18 18
2 2 2 2 2 2 2 1 0 -0 2 8 9 13 10 11 10 10 10 10 8 7 7 7 9 10 9 11 12 12 13 14 17 18 17 14 13 13 13 13 14 15 15 16 16 16 16 16 17 17 17 18 18 18
2 2 2 2 2 2 2 1 -0 2 5 9 8 12 10 7 7 8 7 7 7 5 6 7 9 9 12 12 12 14 15 17 16 15 13 14 13 14 14 14 15 16 17 17 16 17 17 17 18 18 18 17 18 20
2 2 4 2 2 2 2 1 2 2 5 7 8 10 8 8 8 8 8 8 6 6 5 7 9 10 11 12 14 15 15 17 15 13 13 14 14 15 15 15 15 16 16 17 17 17 18 19 19 19 19 19 20 20
2 5 2 2 2 2 2 5 6 7 8 10 11 9 9 9 9 8 7 7 4 6 9 9 11 12 11 13 14 13 14 13 14 15 14 14 15 16 15 16 16 16 17 17 17 18 19 19 20 20 21 20 19 20
4 3 2 2 2 3 4 5 7 8 11 10 11 10 8 7 8 8 7 6 6 7 9 9 9 12 12 13 14 13 13 14 14 15 15 15 15 15 16 16 16 17 17 18 18 19 19 19 19 19 19 19 20 19
3 3 2 2 3 6 8 8 7 11 10 9 8 8 7 8 8 7 7 7 7 6 8 10 10 11 12 11 11 11 13 14 16 16 16 15 15 16 17 17 17 17 18 18 18 18 18 17 18 18 18 18 19 18
2 1 2 2 3 7 10 9 6 9 9 8 7 8 8 8 7 8 7 8 8 8 9 10 11 12 12 12 12 12 13 15 16 17 18 17 17 17 17 17 18 17 18 18 18 18 18 18 17 17 18 18 19 19
2 2 2 3 5 6 8 9 10 10 9 9 7 8 8 8 9 9 9 9 10 10 10 11 12 12 12 12 12 13 14 14 15 16 17 18 17 17 17 17 17 17 18 18 18 18 17 18 17 17 18 18 18 18
3 2 4 4 7 7 7 6 9 8 9 9 8 8 8 9 9 10 10 11 11 12 11 11 12 12 13 13 14 13 14 14 14 15 16 16 18 18 18 17 17 18 18 17 17 18 18 17 17 18 19 19 19 18
3 4 6 6 8 8 9 6 9 8 10 10 9 10 11 10 10 9 11 11 12 11 11 12 12 12 13 14 14 14 14 15 15 16 16 17 17 17 17 17 17 18 18 18 17 17 18 19 20 19 19 19 18 19
4 7 9 10 9 12 9 10 8 9 9 10 10 12 12 11 10 11 13 13 12 12 12 13 13 14 14 15 15 15 15 14 16 16 16 17 18 18 17 17 17 17 17 17 18 18 18 19 21 19 20 19 20 20
9 10 10 12 10 11 12 11 11 11 13 13 13 14 12 11 12 13 13 14 13 13 13 13 13 14 15 15 16 15 15 15 17 17 16 16 18 18 18 18 17 17 17 18 19 20 20 20 20 20 20 20 21 21
13 12 12 13 12 12 14 15 14 14 14 14 13 11 11 13 13 13 14 13 12 13 13 13 14 14 15 15 17 17 16 15 16 17 17 16 17 18 19 20 20 19 17 18 19 20 21 21 21 21 21 21 23 21
14 15 11 9 10 11 12 13 13 14 14 14 14 14 14 12 12 15 15 12 11 11 11 11 12 13 15 16 15 15 15 15 15 16 16 16 16 16 17 18 19 19 18 18 19 20 21 21 21 21 21 21 21 21
11 11 12 11 13 12 14 14 14 14 14 13 14 15 13 14 14 14 12 11 11 11 11 11 12 13 14 15 15 16 17 17 18 17 17 18 18 17 17 17 18 18 18 18 19 19 19 19 20 21 21 21 23 23
13 10 12 16 15 16 15 15 14 14 14 14 14 16 16 14 13 12 12 11 11 11 13 14 15 15 15 15 16 16 16 16 18 19 19 20 20 20 18 18 19 18 19 19 19 19 19 19 20 20 20 21 22 25
12 11 16 18 17 17 15 14 14 13 13 13 12 12 13 13 12 11 11 12 12 13 14 14 15 16 17 17 17 17 15 15 15 16 18 19 18 19 19 19 19 19 19 19 19 20 21 22 23 23 24 24 24 24
11 14 16 16 16 14 14 12 12 12 14 13 14 14 14 13 12 12 12 12 12 13 15 16 16 15 16 16 17 17 18 17 16 16 16 18 19 18 19 19 19 19 19 20 21 21 22 21 22 23 23 23 24 24
16 18 18 19 15 12 11 12 13 13 13 13 14 14 15 15 16 14 13 12 13 15 15 15 16 16 15 14 14 15 15 17 17 18 18 18 18 18 19 19 19 19 19 20 20 21 21 22 22 22 22 22 23 23
17 18 19 17 18 17 15 14 15 15 15 16 16 16 19 18 17 15 13 12 13 14 14 14 14 14 14 15 16 17 17 17 17 17 17 18 18 18 18 19 19 19 20 20 21 21 22 22 22 22 22 22 23 23